period_start,C,m1,H,J0,J1,J2,J3,J4,J5,JA,JB,JC,JD,JJ,JK,JN,#
2015-08-07 00:01:41,0.01,0.11,0.00,24.60,28.22,30.56,4.71,26.32,1019.06,2036.99,3332.00,3250.05,3517.40,350.01,346.67,18.89,0000 0000 0000 0000 000000
2015-08-07 00:06:42,0.00,0.11,0.00,24.59,28.22,30.58,4.65,26.28,1019.07,2036.99,3331.99,3250.05,3517.13,349.23,345.88,18.92,0000 0000 0000 0000 000000
2015-08-07 00:11:43,0.01,0.11,0.00,24.58,28.22,30.57,4.74,26.23,1019.07,2036.99,3331.98,3250.01,3517.07,350.07,346.59,18.95,0000 0000 0000 0000 000000
2015-08-07 00:16:44,0.00,0.11,0.00,24.60,28.22,30.58,4.77,26.18,1019.06,2036.99,3331.90,3250.00,3517.02,349.91,346.79,18.98,0000 0000 0000 0000 000000
2015-08-07 00:21:46,0.01,0.11,0.00,24.62,28.22,30.56,4.79,26.19,1019.06,2036.99,3331.47,3250.00,3517.00,350.12,346.71,19.01,0000 0000 0000 0000 000000
2015-08-07 00:26:47,0.00,0.11,0.00,24.62,28.23,30.57,4.72,26.14,1019.05,2036.99,3331.21,3249.99,3517.00,349.67,346.30,19.04,0000 0000 0000 0000 000000
2015-08-07 00:31:48,0.00,0.11,0.00,24.62,28.22,30.57,4.78,26.16,1019.00,2036.99,3331.07,3249.99,3517.00,350.37,346.83,19.07,0000 0000 0000 0000 000000
2015-08-07 00:36:49,0.00,0.11,0.00,24.60,28.23,30.58,4.80,26.12,1018.87,2036.99,3331.03,3249.99,3516.99,350.15,346.73,19.10,0000 0000 0000 0000 000000
2015-08-07 00:41:50,0.00,0.11,0.00,24.60,28.23,30.56,4.79,26.13,1018.68,2036.99,3331.00,3249.97,3516.97,349.95,346.68,19.13,0000 0000 0000 0000 000000
2015-08-07 00:46:51,0.00,0.11,0.00,24.62,28.24,30.56,4.68,26.18,1018.67,2036.99,3331.00,3249.94,3516.82,349.74,346.24,19.16,0000 0000 0000 0000 000000
2015-08-07 00:51:53,0.00,0.11,0.00,24.62,28.24,30.57,4.79,26.18,1018.65,2036.99,3330.98,3249.90,3516.57,350.61,347.19,19.19,0000 0000 0000 0000 000000
2015-08-07 00:56:54,0.01,0.11,0.00,24.60,28.24,30.59,4.71,26.15,1018.59,2036.99,3330.97,3249.78,3516.28,349.55,346.03,19.22,0000 0000 0000 0000 000000
2015-08-07 01:01:55,0.02,0.12,0.00,24.62,28.25,30.57,4.69,26.18,1018.59,2036.99,3330.74,3249.45,3516.06,349.67,346.00,19.24,0000 0000 0000 0000 000000
2015-08-07 01:06:57,0.02,0.12,0.00,24.62,28.25,30.57,4.78,26.28,1018.57,2036.99,3330.23,3249.22,3516.02,350.46,346.92,19.27,0000 0000 0000 0000 000000
2015-08-07 01:11:58,0.01,0.12,0.00,24.63,28.25,30.58,4.72,26.22,1018.57,2036.99,3330.15,3249.11,3516.00,349.86,346.44,19.30,0000 0000 0000 0000 000000
2015-08-07 01:16:59,0.00,0.12,0.00,24.63,28.25,30.59,4.73,26.15,1018.57,2036.99,3330.01,3249.02,3516.00,349.69,346.16,19.33,0000 0000 0000 0000 000000
2015-08-07 01:22:00,0.00,0.12,0.00,24.63,28.25,30.58,4.71,26.13,1018.55,2036.99,3330.00,3249.04,3516.00,349.85,346.46,19.36,0000 0000 0000 0000 000000
2015-08-07 01:27:02,0.00,0.12,0.00,24.65,28.25,30.59,4.72,26.15,1018.56,2036.99,3330.00,3249.03,3516.00,349.94,346.29,19.39,0000 0000 0000 0000 000000
2015-08-07 01:32:03,0.00,0.12,0.00,24.64,28.25,30.60,4.75,26.14,1018.52,2036.99,3330.00,3249.01,3515.99,350.36,346.82,19.42,0000 0000 0000 0000 000000
2015-08-07 01:37:04,0.00,0.12,0.00,24.67,28.25,30.59,4.72,26.13,1018.43,2036.99,3329.98,3249.00,3515.99,349.62,346.09,19.45,0000 0000 0000 0000 000000
2015-08-07 01:42:06,0.00,0.12,0.00,24.66,28.25,30.59,4.77,26.07,1018.17,2036.99,3329.97,3249.00,3515.97,350.26,346.43,19.48,0000 0000 0000 0000 000000
2015-08-07 01:47:07,0.00,0.12,0.00,24.65,28.26,30.59,4.77,26.00,1018.13,2037.00,3329.87,3249.00,3515.93,350.42,346.58,19.51,0000 0000 0000 0000 000000
2015-08-07 01:52:09,0.03,0.12,0.00,24.65,28.27,30.59,4.76,26.10,1018.12,2037.00,3329.34,3248.99,3515.58,349.86,346.06,19.54,0000 0000 0000 0000 000000
2015-08-07 01:57:10,0.01,0.12,0.00,24.65,28.27,30.58,4.74,26.09,1018.08,2037.00,3329.05,3248.98,3515.25,349.35,345.81,19.57,0000 0000 0000 0000 000000
2015-08-07 02:02:11,0.00,0.12,0.00,24.67,28.27,30.60,4.69,26.21,1018.08,2037.00,3329.00,3248.93,3515.03,349.50,345.75,19.60,0000 0000 0000 0000 000000
2015-08-07 02:07:13,0.01,0.12,0.00,24.67,28.27,30.59,4.71,26.18,1018.08,2036.99,3329.00,3248.66,3515.00,350.34,346.52,19.63,0000 0000 0000 0000 000000
2015-08-07 02:12:14,0.02,0.12,0.00,24.67,28.27,30.61,4.71,26.05,1018.07,2036.99,3328.93,3248.33,3515.00,350.01,346.16,19.65,0000 0000 0000 0000 000000
2015-08-07 02:17:16,0.02,0.12,0.00,24.67,28.27,30.60,4.75,26.14,1018.08,2036.99,3328.41,3248.09,3514.97,350.62,347.00,19.68,0000 0000 0000 0000 000000
2015-08-07 02:22:17,0.01,0.12,0.00,24.69,28.27,30.61,4.78,26.06,1018.07,2036.99,3328.07,3248.01,3514.92,350.18,346.27,19.71,0000 0000 0000 0000 000000
2015-08-07 02:27:18,0.01,0.12,0.00,24.70,28.28,30.61,4.71,26.11,1018.07,2036.99,3328.01,3248.00,3514.64,349.82,346.26,19.74,0000 0000 0000 0000 000000
2015-08-07 02:32:19,0.00,0.12,0.00,24.70,28.29,30.61,4.75,26.21,1018.02,2036.99,3328.00,3248.00,3514.22,349.87,346.21,19.77,0000 0000 0000 0000 000000
2015-08-07 02:37:21,0.00,0.12,0.00,24.71,28.30,30.61,4.73,26.12,1017.85,2036.99,3327.96,3248.00,3514.04,349.14,345.42,19.80,0000 0000 0000 0000 000000
2015-08-07 02:42:22,0.02,0.12,0.00,24.72,28.30,30.62,4.73,26.10,1017.67,2036.99,3327.55,3247.97,3514.00,350.25,346.28,19.83,0000 0000 0000 0000 000000
2015-08-07 02:47:23,0.01,0.12,0.00,24.72,28.30,30.61,4.76,26.13,1017.62,2036.99,3327.06,3247.94,3514.00,350.20,346.21,19.86,0000 0000 0000 0000 000000
2015-08-07 02:52:24,0.00,0.12,0.00,24.73,28.30,30.62,4.72,26.12,1017.61,2036.98,3327.02,3247.86,3513.99,350.24,346.22,19.89,0000 0000 0000 0000 000000
2015-08-07 02:57:26,0.00,0.12,0.00,24.75,28.31,30.63,4.75,26.16,1017.61,2036.99,3327.00,3247.74,3513.98,350.09,345.89,19.92,0000 0000 0000 0000 000000
2015-08-07 03:02:27,0.01,0.12,0.00,24.77,28.32,30.64,4.70,26.26,1017.61,2036.99,3327.00,3247.68,3513.91,349.77,345.79,19.95,0000 0000 0000 0000 000000
2015-08-07 03:07:28,0.03,0.12,0.00,24.80,28.32,30.64,4.60,26.07,1017.60,2036.99,3326.98,3247.09,3513.41,349.79,345.71,19.98,0000 0000 0000 0000 000000
2015-08-07 03:12:30,0.01,0.12,0.00,24.82,28.32,30.64,4.68,26.20,1017.59,2036.99,3326.95,3247.03,3513.15,349.56,345.53,20.01,0000 0000 0000 0000 000000
2015-08-07 03:17:31,0.02,0.12,0.00,24.83,28.34,30.65,4.75,26.19,1017.58,2036.99,3326.65,3247.00,3513.02,350.08,345.96,20.04,0000 0000 0000 0000 000000
2015-08-07 03:22:32,0.01,0.12,0.00,24.85,28.35,30.66,4.78,26.15,1017.57,2036.98,3326.15,3247.00,3513.00,350.39,346.21,20.06,0000 0000 0000 0000 000000
2015-08-07 03:27:33,0.00,0.12,0.00,24.87,28.35,30.66,4.74,26.13,1017.54,2036.99,3326.01,3246.99,3513.00,349.87,345.75,20.09,0000 0000 0000 0000 000000
2015-08-07 03:32:34,0.00,0.12,0.00,24.87,28.37,30.67,4.70,26.13,1017.38,2036.98,3326.00,3246.97,3512.98,349.67,345.63,20.12,0000 0000 0000 0000 000000
2015-08-07 03:37:35,0.01,0.12,0.00,24.91,28.37,30.68,4.70,26.06,1017.18,2036.98,3325.99,3246.85,3512.84,349.89,345.46,20.15,0000 0000 0000 0000 000000
2015-08-07 03:42:36,0.04,0.13,0.00,24.92,28.39,30.68,4.69,26.08,1017.12,2036.95,3325.89,3246.41,3512.20,349.74,345.36,20.18,0000 0000 0000 0000 000000
2015-08-07 03:47:37,0.02,0.13,0.00,24.95,28.40,30.70,4.70,26.09,1017.11,2036.88,3325.39,3246.08,3512.02,349.92,345.51,20.21,0000 0000 0000 0000 000000
2015-08-07 03:52:39,-0.00,0.13,0.00,24.97,28.41,30.71,4.72,26.12,1017.11,2036.82,3325.04,3246.02,3512.00,349.92,345.49,20.24,0000 0000 0000 0000 000000
2015-08-07 03:57:40,-0.02,0.13,0.00,24.97,28.42,30.72,4.74,26.12,1017.10,2036.74,3325.00,3246.00,3512.00,349.86,345.31,20.27,0000 0000 0000 0000 000000
2015-08-07 04:02:41,-0.05,0.12,0.00,25.00,28.44,30.73,4.69,26.37,1017.06,2036.35,3324.88,3245.98,3511.82,349.78,345.29,20.30,0000 0000 0000 0000 000000
2015-08-07 04:07:42,0.02,0.12,0.00,25.02,28.45,30.75,4.75,26.15,1016.92,2036.19,3324.28,3245.91,3511.27,350.38,345.78,20.33,0000 0000 0000 0000 000000
2015-08-07 04:12:43,0.02,0.13,0.00,25.05,28.46,30.76,4.73,26.11,1016.71,2036.17,3324.05,3245.58,3511.07,350.07,345.56,20.36,0000 0000 0000 0000 000000
2015-08-07 04:17:45,0.03,0.13,0.00,25.07,28.47,30.77,4.71,26.13,1016.67,2036.14,3324.00,3245.12,3511.01,350.08,345.49,20.39,0000 0000 0000 0000 000000
2015-08-07 04:22:46,-0.02,0.13,0.00,25.09,28.50,30.79,4.78,26.18,1016.65,2036.07,3324.00,3245.04,3510.99,350.42,345.75,20.42,0000 0000 0000 0000 000000
2015-08-07 04:27:47,0.00,0.13,0.00,25.11,28.51,30.80,4.70,26.05,1016.66,2036.01,3323.95,3245.00,3510.85,349.65,344.99,20.45,0000 0000 0000 0000 000000
2015-08-07 04:32:48,0.03,0.13,0.00,25.12,28.52,30.81,4.70,26.05,1016.64,2036.02,3323.56,3244.99,3510.26,350.09,345.34,20.47,0000 0000 0000 0000 000000
2015-08-07 04:37:50,0.01,0.13,0.00,25.14,28.54,30.84,4.70,26.10,1016.63,2036.00,3323.06,3244.95,3510.03,349.69,344.81,20.50,0000 0000 0000 0000 000000
2015-08-07 04:42:51,0.01,0.13,0.00,25.17,28.55,30.85,4.74,26.01,1016.64,2036.00,3323.01,3244.82,3510.01,350.39,345.55,20.53,0000 0000 0000 0000 000000
2015-08-07 04:47:52,0.02,0.13,0.00,25.19,28.57,30.86,4.74,26.18,1016.62,2036.00,3322.98,3244.22,3509.98,349.86,345.08,20.56,0000 0000 0000 0000 000000
2015-08-07 04:52:53,0.03,0.13,0.00,25.22,28.59,30.89,4.72,26.01,1016.62,2035.99,3322.62,3244.00,3509.64,350.23,344.96,20.59,0000 0000 0000 0000 000000
2015-08-07 04:57:54,0.01,0.13,0.00,25.24,28.61,30.90,4.74,26.03,1016.62,2035.99,3322.05,3244.00,3509.15,349.76,344.89,20.62,0000 0000 0000 0000 000000
2015-08-07 05:02:56,0.00,0.13,0.00,25.26,28.62,30.91,4.75,26.17,1016.60,2035.98,3322.00,3243.98,3509.01,350.05,345.06,20.65,0000 0000 0000 0000 000000
2015-08-07 05:07:57,0.00,0.13,0.00,25.28,28.65,30.94,4.70,26.07,1016.60,2035.98,3321.99,3243.88,3509.00,349.91,344.96,20.68,0000 0000 0000 0000 000000
2015-08-07 05:12:58,0.02,0.13,0.00,25.31,28.66,30.95,4.72,26.01,1016.58,2035.96,3321.94,3243.42,3508.96,350.08,345.03,20.71,0000 0000 0000 0000 000000
2015-08-07 05:17:59,0.03,0.13,0.00,25.33,28.68,30.96,4.72,26.02,1016.48,2035.89,3321.39,3243.04,3508.46,350.15,345.10,20.74,0000 0000 0000 0000 000000
2015-08-07 05:23:01,0.00,0.13,0.00,25.36,28.70,30.98,4.68,26.11,1016.29,2035.81,3321.02,3243.00,3508.05,349.78,344.69,20.77,0000 0000 0000 0000 000000
2015-08-07 05:28:02,-0.07,0.13,0.00,25.38,28.72,31.00,4.72,26.18,1016.17,2035.48,3320.98,3242.99,3508.00,349.91,344.66,20.80,0000 0000 0000 0000 000000
2015-08-07 05:33:03,-0.01,0.13,0.00,25.41,28.74,31.03,4.69,26.03,1016.15,2035.14,3320.75,3242.81,3507.96,349.65,344.47,20.83,0000 0000 0000 0000 000000
2015-08-07 05:38:05,0.05,0.13,0.00,25.44,28.76,31.04,4.66,26.11,1016.14,2035.10,3320.21,3242.29,3507.62,349.74,344.55,20.86,0000 0000 0000 0000 000000
2015-08-07 05:43:06,0.01,0.13,0.00,25.46,28.78,31.06,4.78,26.08,1016.13,2035.02,3320.01,3242.02,3507.05,350.30,344.90,20.88,0000 0000 0000 0000 000000
2015-08-07 05:48:07,0.00,0.13,0.00,25.50,28.80,31.08,4.75,26.14,1016.13,2035.00,3319.99,3242.00,3507.00,350.37,345.06,20.91,0000 0000 0000 0000 000000
2015-08-07 05:53:08,0.01,0.13,0.00,25.52,28.82,31.10,4.73,26.14,1016.13,2035.00,3319.72,3241.95,3506.93,349.97,344.47,20.94,0000 0000 0000 0000 000000
2015-08-07 05:58:09,0.06,0.13,0.00,25.55,28.85,31.12,4.74,26.18,1016.12,2034.99,3319.10,3241.38,3506.23,350.30,344.89,20.97,0000 0000 0000 0000 000000
2015-08-07 06:03:11,0.00,0.13,0.00,25.57,28.87,31.14,4.71,26.33,1016.00,2034.98,3319.01,3241.04,3506.00,350.35,345.00,21.00,0000 0000 0000 0000 000000
2015-08-07 06:08:12,-0.01,0.13,0.00,25.60,28.89,31.16,4.71,26.03,1015.79,2034.91,3318.97,3241.00,3506.00,350.37,344.58,21.03,0000 0000 0000 0000 000000
2015-08-07 06:13:14,-0.02,0.13,0.00,25.62,28.91,31.19,4.64,26.07,1015.72,2034.68,3318.65,3240.98,3505.60,349.71,344.16,21.06,0000 0000 0000 0000 000000
2015-08-07 06:18:15,-0.02,0.13,0.00,25.64,28.93,31.21,4.76,26.09,1015.67,2034.20,3318.07,3240.71,3505.07,349.98,344.20,21.09,0000 0000 0000 0000 000000
2015-08-07 06:23:16,0.02,0.13,0.00,25.66,28.96,31.24,4.74,26.16,1015.65,2034.13,3318.00,3240.22,3505.01,350.14,344.40,21.12,0000 0000 0000 0000 000000
2015-08-07 06:28:18,-0.01,0.13,0.00,25.69,28.98,31.26,4.69,26.10,1015.64,2034.03,3317.96,3240.03,3504.99,350.20,344.39,21.15,0000 0000 0000 0000 000000
2015-08-07 06:33:20,0.02,0.13,0.00,25.71,29.00,31.28,4.71,26.13,1015.64,2034.01,3317.53,3240.00,3504.64,349.87,344.11,21.18,0000 0000 0000 0000 000000
2015-08-07 06:38:21,0.01,0.13,0.00,25.72,29.02,31.30,4.72,26.13,1015.64,2034.00,3317.07,3239.97,3504.08,349.58,343.70,21.21,0000 0000 0000 0000 000000
2015-08-07 06:43:22,0.02,0.13,0.00,25.75,29.05,31.32,4.73,26.04,1015.64,2034.00,3317.00,3239.64,3504.00,350.09,344.21,21.24,0000 0000 0000 0000 000000
2015-08-07 06:48:23,0.01,0.13,0.00,25.77,29.07,31.34,4.73,26.07,1015.64,2033.99,3316.97,3239.08,3503.99,350.04,344.25,21.27,0000 0000 0000 0000 000000
2015-08-07 06:53:24,0.03,0.14,0.00,25.79,29.09,31.36,4.78,26.07,1015.64,2033.97,3316.42,3239.00,3503.61,350.53,344.44,21.29,0000 0000 0000 0000 000000
2015-08-07 06:58:26,0.01,0.14,0.00,25.80,29.11,31.39,4.72,26.09,1015.63,2033.96,3316.04,3238.99,3503.08,350.01,343.93,21.32,0000 0000 0000 0000 000000
2015-08-07 07:03:27,-0.04,0.14,0.00,25.82,29.13,31.41,4.75,26.32,1015.49,2033.68,3315.97,3238.70,3502.99,350.62,344.59,21.35,0000 0000 0000 0000 000000
2015-08-07 07:08:28,-0.02,0.13,0.00,25.85,29.15,31.44,4.71,26.07,1015.27,2033.29,3315.75,3238.15,3502.87,349.91,343.77,21.38,0000 0000 0000 0000 000000
2015-08-07 07:13:30,0.01,0.13,0.00,25.86,29.17,31.46,4.71,26.10,1015.19,2033.14,3315.10,3238.01,3502.25,350.41,344.50,21.41,0000 0000 0000 0000 000000
2015-08-07 07:18:31,-0.01,0.13,0.00,25.89,29.20,31.48,4.75,26.13,1015.18,2033.06,3315.00,3238.00,3502.02,350.02,343.73,21.44,0000 0000 0000 0000 000000
2015-08-07 07:23:32,0.01,0.13,0.00,25.91,29.21,31.49,4.72,26.03,1015.16,2033.01,3314.92,3237.93,3501.99,350.44,344.15,21.47,0000 0000 0000 0000 000000
2015-08-07 07:28:33,0.06,0.14,0.00,25.93,29.24,31.52,4.74,26.16,1015.15,2033.01,3314.21,3237.35,3501.82,349.96,343.57,21.50,0000 0000 0000 0000 000000
2015-08-07 07:33:34,0.02,0.14,0.00,25.95,29.26,31.54,4.67,26.00,1015.15,2033.00,3314.00,3237.02,3501.10,350.15,343.69,21.53,0000 0000 0000 0000 000000
2015-08-07 07:38:36,0.00,0.14,0.00,25.97,29.28,31.56,4.68,26.07,1015.15,2033.00,3313.99,3237.00,3501.00,349.64,343.59,21.56,0000 0000 0000 0000 000000
2015-08-07 07:43:37,0.00,0.14,0.00,25.99,29.30,31.58,4.70,26.13,1015.15,2033.00,3313.93,3236.99,3500.99,349.60,343.43,21.59,0000 0000 0000 0000 000000
2015-08-07 07:48:38,0.03,0.14,0.00,26.02,29.32,31.60,4.69,26.05,1015.15,2032.99,3313.35,3236.79,3500.77,349.81,343.39,21.62,0000 0000 0000 0000 000000
2015-08-07 07:53:40,0.04,0.14,0.00,26.03,29.34,31.63,4.71,26.07,1015.15,2032.96,3313.03,3236.20,3500.15,349.77,343.50,21.65,0000 0000 0000 0000 000000
2015-08-07 07:58:41,-0.01,0.14,0.00,26.06,29.36,31.65,4.71,26.06,1015.15,2032.89,3313.00,3236.03,3500.00,350.05,343.53,21.68,0000 0000 0000 0000 000000
2015-08-07 08:03:43,-0.04,0.14,0.00,26.07,29.39,31.66,4.68,26.27,1015.15,2032.57,3312.59,3235.99,3499.96,349.88,343.30,21.71,0000 0000 0000 0000 000000
2015-08-07 08:08:44,-0.04,0.14,0.00,26.10,29.41,31.68,4.65,26.02,1015.14,2032.20,3312.18,3235.97,3499.67,349.53,343.09,21.73,0000 0000 0000 0000 000000
2015-08-07 08:13:45,0.03,0.14,0.00,26.12,29.43,31.71,4.62,26.04,1014.93,2032.11,3312.01,3235.57,3499.11,349.79,343.34,21.76,0000 0000 0000 0000 000000
2015-08-07 08:18:46,0.01,0.14,0.00,26.14,29.45,31.73,4.62,26.03,1014.68,2032.08,3311.98,3235.08,3499.00,350.19,343.42,21.79,0000 0000 0000 0000 000000
2015-08-07 08:23:47,0.01,0.14,0.00,26.18,29.47,31.75,4.67,26.06,1014.67,2032.02,3311.45,3235.00,3498.97,349.79,343.09,21.82,0000 0000 0000 0000 000000
2015-08-07 08:28:49,0.01,0.14,0.00,26.20,29.50,31.76,4.70,25.94,1014.69,2032.00,3311.03,3234.97,3498.55,349.92,343.32,21.85,0000 0000 0000 0000 000000
2015-08-07 08:33:51,0.03,0.14,0.00,26.22,29.52,31.79,4.74,26.05,1014.67,2032.00,3310.96,3234.64,3498.06,349.61,342.79,21.88,0000 0000 0000 0000 000000
2015-08-07 08:38:52,0.04,0.14,0.00,26.25,29.54,31.80,4.71,26.06,1014.66,2032.00,3310.33,3234.06,3497.99,350.38,343.68,21.91,0000 0000 0000 0000 000000
2015-08-07 08:43:53,0.00,0.14,0.00,26.28,29.56,31.83,4.74,26.01,1014.66,2032.00,3310.01,3234.00,3497.76,350.14,343.20,21.94,0000 0000 0000 0000 000000
2015-08-07 08:48:54,0.01,0.14,0.00,26.31,29.58,31.85,4.63,25.97,1014.66,2031.99,3309.97,3233.91,3497.12,349.56,342.64,21.97,0000 0000 0000 0000 000000
2015-08-07 08:53:55,0.04,0.14,0.00,26.35,29.61,31.87,4.68,25.97,1014.66,2031.98,3309.52,3233.40,3497.00,349.71,342.78,22.00,0000 0000 0000 0000 000000
2015-08-07 08:58:57,0.01,0.14,0.00,26.40,29.63,31.89,4.72,25.99,1014.66,2031.92,3309.04,3233.02,3496.74,350.27,343.26,22.03,0000 0000 0000 0000 000000
2015-08-07 09:03:58,-0.03,0.14,0.00,26.45,29.66,31.90,4.68,26.14,1014.66,2031.65,3308.91,3232.99,3496.13,350.04,342.95,22.06,0000 0000 0000 0000 000000
2015-08-07 09:08:59,-0.02,0.14,0.00,26.48,29.68,31.93,4.70,25.95,1014.67,2031.43,3308.79,3232.91,3496.00,350.03,343.05,22.09,0000 0000 0000 0000 000000
2015-08-07 09:14:00,0.01,0.14,0.00,26.52,29.71,31.95,4.68,26.00,1014.66,2031.18,3308.40,3232.45,3495.95,349.99,342.86,22.12,0000 0000 0000 0000 000000
2015-08-07 09:19:01,0.01,0.14,0.00,26.56,29.73,31.97,4.69,26.06,1014.66,2031.02,3308.01,3232.01,3495.33,349.60,342.46,22.14,0000 0000 0000 0000 000000
2015-08-07 09:24:03,0.00,0.14,0.00,26.58,29.76,31.99,4.68,26.01,1014.66,2031.00,3307.92,3231.95,3495.00,349.79,342.78,22.17,0000 0000 0000 0000 000000
2015-08-07 09:29:04,0.04,0.14,0.00,26.60,29.77,32.02,4.70,26.02,1014.64,2030.98,3307.37,3231.64,3494.92,349.85,342.64,22.20,0000 0000 0000 0000 000000
2015-08-07 09:34:06,0.03,0.15,0.00,26.62,29.80,32.04,4.67,26.00,1014.64,2030.93,3307.04,3231.13,3494.30,349.78,342.36,22.23,0000 0000 0000 0000 000000
2015-08-07 09:39:07,-0.06,0.15,0.00,26.62,29.83,32.08,4.78,26.16,1014.65,2030.61,3306.97,3231.00,3494.00,350.53,343.35,22.26,0000 0000 0000 0000 000000
2015-08-07 09:44:09,-0.04,0.14,0.00,26.63,29.86,32.11,4.57,26.02,1014.65,2030.11,3306.57,3230.90,3493.92,349.19,342.13,22.29,0000 0000 0000 0000 000000
2015-08-07 09:49:10,0.04,0.14,0.00,26.65,29.88,32.14,4.70,25.95,1014.65,2030.02,3306.05,3230.33,3493.28,349.99,342.64,22.32,0000 0000 0000 0000 000000
2015-08-07 09:54:11,0.01,0.14,0.00,26.67,29.91,32.16,4.70,26.08,1014.42,2030.00,3306.00,3230.02,3493.02,350.05,342.74,22.35,0000 0000 0000 0000 000000
2015-08-07 09:59:12,0.01,0.14,0.00,26.67,29.93,32.19,4.67,26.00,1014.30,2030.00,3305.72,3229.99,3492.98,349.71,342.10,22.38,0000 0000 0000 0000 000000
2015-08-07 10:04:14,0.03,0.15,0.00,26.70,29.96,32.21,4.70,26.18,1014.40,2030.00,3305.11,3229.94,3492.56,349.45,342.29,22.41,0000 0000 0000 0000 000000
2015-08-07 10:09:15,0.02,0.15,0.00,26.70,29.98,32.24,4.72,26.05,1014.26,2029.99,3305.00,3229.62,3492.10,350.53,343.20,22.44,0000 0000 0000 0000 000000
2015-08-07 10:14:17,0.01,0.15,0.00,26.72,30.00,32.27,4.66,26.05,1014.21,2029.97,3304.99,3229.07,3492.00,350.06,342.62,22.47,0000 0000 0000 0000 000000
2015-08-07 10:19:18,-0.00,0.15,0.00,26.73,30.02,32.29,4.59,26.02,1014.20,2029.85,3304.43,3229.00,3491.95,349.43,342.13,22.50,0000 0000 0000 0000 000000
2015-08-07 10:24:19,-0.01,0.15,0.00,26.75,30.05,32.32,4.66,25.97,1014.19,2029.64,3304.01,3228.91,3491.37,350.21,342.61,22.53,0000 0000 0000 0000 000000
2015-08-07 10:29:21,-0.01,0.15,0.00,26.75,30.07,32.34,4.67,26.03,1014.33,2029.34,3303.99,3228.38,3491.02,350.15,342.86,22.55,0000 0000 0000 0000 000000
2015-08-07 10:34:22,-0.02,0.15,0.00,26.77,30.10,32.37,4.61,26.04,1014.45,2029.09,3303.56,3228.02,3490.98,349.54,342.01,22.58,0000 0000 0000 0000 000000
2015-08-07 10:39:23,0.01,0.15,0.00,26.78,30.11,32.39,4.79,26.06,1014.58,2029.04,3303.08,3228.00,3490.79,350.58,343.10,22.61,0000 0000 0000 0000 000000
2015-08-07 10:44:24,0.01,0.15,0.00,26.79,30.13,32.41,4.68,26.12,1014.55,2029.00,3303.00,3227.96,3490.08,349.89,342.43,22.64,0000 0000 0000 0000 000000
2015-08-07 10:49:25,0.04,0.15,0.00,26.80,30.15,32.43,4.78,26.13,1014.60,2029.00,3302.65,3227.45,3490.00,350.86,343.36,22.67,0000 0000 0000 0000 000000
2015-08-07 10:54:27,0.02,0.15,0.00,26.81,30.17,32.46,4.76,26.06,1014.46,2029.00,3302.09,3227.03,3489.90,350.13,342.69,22.70,0000 0000 0000 0000 000000
2015-08-07 10:59:28,0.02,0.15,0.00,26.82,30.20,32.48,4.61,26.07,1014.59,2029.00,3302.00,3227.00,3489.24,350.05,342.72,22.73,0000 0000 0000 0000 000000
2015-08-07 11:04:29,0.03,0.15,0.00,26.82,30.21,32.50,4.64,26.09,1014.56,2028.98,3301.47,3226.84,3489.01,349.65,342.35,22.76,0000 0000 0000 0000 000000
2015-08-07 11:09:30,0.03,0.15,0.00,26.83,30.23,32.52,4.66,25.99,1014.38,2028.97,3301.01,3226.24,3488.95,349.67,342.19,22.79,0000 0000 0000 0000 000000
2015-08-07 11:14:32,0.02,0.15,0.00,26.85,30.25,32.53,4.65,26.02,1014.20,2028.94,3300.86,3226.00,3488.32,349.75,342.17,22.82,0000 0000 0000 0000 000000
2015-08-07 11:19:33,0.01,0.15,0.00,26.85,30.27,32.55,4.66,26.04,1014.18,2028.86,3300.14,3225.86,3488.00,350.05,342.54,22.85,0000 0000 0000 0000 000000
2015-08-07 11:24:35,0.08,0.15,0.00,26.86,30.28,32.57,4.68,26.03,1014.17,2028.79,3299.68,3225.07,3487.55,350.09,342.34,22.88,0000 0000 0000 0000 000000
2015-08-07 11:29:36,-0.02,0.16,0.00,26.87,30.30,32.58,4.63,25.98,1014.13,2028.66,3299.04,3224.99,3487.04,349.79,342.13,22.91,0000 0000 0000 0000 000000
2015-08-07 11:34:38,-0.03,0.15,0.00,26.87,30.32,32.61,4.69,25.94,1014.06,2028.33,3298.94,3224.77,3486.90,349.81,342.20,22.94,0000 0000 0000 0000 000000
2015-08-07 11:39:39,0.03,0.15,0.00,26.87,30.33,32.61,4.71,25.96,1013.70,2028.19,3298.79,3224.22,3486.35,350.37,342.45,22.97,0000 0000 0000 0000 000000
2015-08-07 11:44:40,0.01,0.15,0.00,26.89,30.35,32.63,4.62,25.98,1013.70,2028.02,3298.17,3224.01,3486.01,349.91,342.16,22.99,0000 0000 0000 0000 000000
2015-08-07 11:49:41,0.00,0.15,0.00,26.91,30.37,32.64,4.61,26.02,1013.72,2028.00,3298.00,3224.00,3485.98,349.59,341.76,23.02,0000 0000 0000 0000 000000
2015-08-07 11:54:42,0.01,0.15,0.00,26.93,30.38,32.65,4.69,25.97,1013.84,2028.00,3297.96,3223.94,3485.75,349.92,342.16,23.05,0000 0000 0000 0000 000000
2015-08-07 11:59:44,0.05,0.16,0.00,26.96,30.40,32.66,4.66,25.95,1013.72,2028.00,3297.53,3223.57,3485.17,349.74,341.88,23.08,0000 0000 0000 0000 000000
2015-08-07 12:04:45,0.02,0.16,0.00,27.00,30.41,32.68,4.65,26.02,1013.69,2027.99,3297.03,3223.04,3485.00,349.91,342.13,23.11,0000 0000 0000 0000 000000
2015-08-07 12:09:46,0.00,0.16,0.00,27.02,30.42,32.68,4.69,25.95,1013.61,2027.99,3297.00,3223.00,3484.97,350.46,342.35,23.14,0000 0000 0000 0000 000000
2015-08-07 12:14:47,0.03,0.16,0.00,27.01,30.45,32.70,4.61,25.96,1013.64,2027.97,3296.72,3222.96,3484.46,349.59,341.64,23.17,0000 0000 0000 0000 000000
2015-08-07 12:19:49,0.03,0.16,0.00,27.02,30.45,32.72,4.70,25.89,1013.66,2027.96,3296.07,3222.55,3484.02,350.15,342.05,23.20,0000 0000 0000 0000 000000
2015-08-07 12:24:50,0.01,0.16,0.00,27.02,30.47,32.74,4.68,25.90,1013.56,2027.95,3295.99,3222.10,3484.00,349.34,341.23,23.23,0000 0000 0000 0000 000000
2015-08-07 12:29:51,0.01,0.16,0.00,27.01,30.48,32.76,4.67,25.96,1013.33,2027.93,3295.71,3222.00,3483.99,349.82,341.69,23.26,0000 0000 0000 0000 000000
2015-08-07 12:34:52,0.01,0.16,0.00,27.01,30.50,32.78,4.67,25.83,1013.23,2027.90,3295.20,3222.00,3483.71,349.82,341.62,23.29,0000 0000 0000 0000 000000
2015-08-07 12:39:53,-0.05,0.16,0.00,27.01,30.51,32.79,4.68,26.03,1013.34,2027.57,3295.02,3221.95,3483.11,349.91,341.68,23.32,0000 0000 0000 0000 000000
2015-08-07 12:44:55,-0.03,0.16,0.00,27.00,30.52,32.80,4.67,25.95,1013.58,2027.21,3295.00,3221.77,3483.00,349.94,341.62,23.35,0000 0000 0000 0000 000000
2015-08-07 12:49:56,0.01,0.16,0.00,27.00,30.54,32.82,4.72,25.99,1013.69,2027.09,3294.95,3221.38,3482.99,350.65,342.70,23.37,0000 0000 0000 0000 000000
2015-08-07 12:54:57,0.02,0.16,0.00,27.01,30.55,32.83,4.78,26.07,1013.59,2027.04,3294.51,3221.04,3482.93,350.63,342.54,23.40,0000 0000 0000 0000 000000
2015-08-07 12:59:58,0.01,0.16,0.00,27.02,30.56,32.84,4.64,25.93,1013.68,2027.01,3294.04,3221.00,3482.37,349.88,341.98,23.43,0000 0000 0000 0000 000000